TimeEST,TemperatureF,Dew PointF,Humidity,Sea Level PressureIn,VisibilityMPH,Wind Direction,Wind SpeedMPH,Gust SpeedMPH,PrecipitationIn,Events,Conditions,WindDirDegrees,DateUTC
12:52 AM,34.0,30.9,89,30.03,7.0,Calm,Calm,-,N/A,,Overcast,0,2011-01-01 05:52:00
1:19 AM,33.8,32.0,93,29.98,7.0,Calm,Calm,-,0.00,,Overcast,0,2011-01-01 06:19:00
1:41 AM,33.8,32.0,93,30.00,1.8,Calm,Calm,-,0.03,Rain,Rain,0,2011-01-01 06:41:00
1:52 AM,34.0,32.0,92,30.04,2.0,Calm,Calm,-,0.05,Rain,Rain,0,2011-01-01 06:52:00
2:50 AM,33.8,32.0,93,30.00,2.0,Calm,Calm,-,0.01,,Overcast,0,2011-01-01 07:50:00
2:52 AM,34.0,33.1,96,30.04,2.5,Calm,Calm,-,0.01,,Overcast,0,2011-01-01 07:52:00
3:00 AM,33.8,33.8,100,30.00,3.0,Calm,Calm,-,N/A,,Overcast,0,2011-01-01 08:00:00
3:39 AM,35.6,33.8,93,30.01,2.5,Calm,Calm,-,0.00,,Overcast,0,2011-01-01 08:39:00
3:52 AM,34.0,34.0,100,30.05,1.5,Calm,Calm,-,0.00,,Overcast,0,2011-01-01 08:52:00
4:05 AM,33.8,33.8,100,30.01,1.0,Calm,Calm,-,0.00,,Overcast,0,2011-01-01 09:05:00
4:16 AM,33.8,33.8,100,30.01,0.8,Calm,Calm,-,0.00,,Overcast,0,2011-01-01 09:16:00
4:28 AM,33.8,33.8,100,30.02,0.8,Calm,Calm,-,0.00,,Overcast,0,2011-01-01 09:28:00
4:47 AM,33.8,33.8,100,30.02,0.8,Calm,Calm,-,0.00,,Overcast,0,2011-01-01 09:47:00
4:52 AM,34.0,33.1,96,30.07,1.2,Calm,Calm,-,0.00,,Overcast,0,2011-01-01 09:52:00
5:02 AM,33.8,33.8,100,30.02,1.5,Calm,Calm,-,N/A,,Overcast,0,2011-01-01 10:02:00
5:06 AM,33.8,33.8,100,30.03,1.2,Calm,Calm,-,N/A,,Overcast,0,2011-01-01 10:06:00
5:21 AM,33.8,33.8,100,30.03,1.5,Calm,Calm,-,0.01,,Overcast,0,2011-01-01 10:21:00
5:31 AM,33.8,33.8,100,30.03,1.2,Calm,Calm,-,0.01,,Overcast,0,2011-01-01 10:31:00
5:50 AM,33.8,33.8,100,30.03,1.0,Calm,Calm,-,0.01,,Overcast,0,2011-01-01 10:50:00
5:52 AM,34.0,33.1,96,30.08,1.0,Calm,Calm,-,0.01,,Overcast,0,2011-01-01 10:52:00
6:41 AM,33.8,33.8,100,30.04,0.5,Calm,Calm,-,N/A,Fog,Fog,0,2011-01-01 11:41:00
6:52 AM,34.0,33.1,96,30.08,1.0,Calm,Calm,-,N/A,,Overcast,0,2011-01-01 11:52:00
7:03 AM,33.8,33.8,100,30.03,0.5,Calm,Calm,-,N/A,Fog,Fog,0,2011-01-01 12:03:00
7:16 AM,33.8,33.8,100,30.03,1.5,Calm,Calm,-,N/A,,Overcast,0,2011-01-01 12:16:00
7:30 AM,35.6,33.8,93,30.03,2.0,Calm,Calm,-,N/A,,Overcast,0,2011-01-01 12:30:00
7:35 AM,35.6,33.8,93,30.03,1.2,Calm,Calm,-,N/A,,Overcast,0,2011-01-01 12:35:00
7:44 AM,33.8,33.8,100,30.03,0.5,Calm,Calm,-,N/A,Fog,Fog,0,2011-01-01 12:44:00
7:52 AM,34.0,34.0,100,30.08,0.8,Calm,Calm,-,N/A,,Overcast,0,2011-01-01 12:52:00
7:59 AM,33.8,33.8,100,30.03,0.8,Calm,Calm,-,N/A,,Overcast,0,2011-01-01 12:59:00
8:30 AM,33.8,33.8,100,30.03,1.0,Calm,Calm,-,N/A,,Overcast,0,2011-01-01 13:30:00
8:41 AM,33.8,33.8,100,30.03,0.5,Calm,Calm,-,N/A,Fog,Fog,0,2011-01-01 13:41:00
8:52 AM,35.1,34.0,96,30.07,0.8,Calm,Calm,-,N/A,,Overcast,0,2011-01-01 13:52:00
9:12 AM,33.8,33.8,100,30.05,0.8,Calm,Calm,-,N/A,,Overcast,0,2011-01-01 14:12:00
9:18 AM,35.6,33.8,93,30.05,1.5,Calm,Calm,-,N/A,,Overcast,0,2011-01-01 14:18:00
9:25 AM,33.8,33.8,100,30.06,1.2,Calm,Calm,-,N/A,,Overcast,0,2011-01-01 14:25:00
9:52 AM,35.1,34.0,96,30.09,1.0,Calm,Calm,-,N/A,,Overcast,0,2011-01-01 14:52:00
9:59 AM,35.6,35.6,100,30.06,0.5,Calm,Calm,-,N/A,Fog,Fog,0,2011-01-01 14:59:00
10:18 AM,35.6,35.6,100,30.05,1.0,Calm,Calm,-,N/A,,Overcast,0,2011-01-01 15:18:00
10:36 AM,35.6,35.6,100,30.05,1.8,Calm,Calm,-,N/A,,Overcast,0,2011-01-01 15:36:00
10:45 AM,37.4,35.6,93,30.05,2.0,Calm,Calm,-,N/A,,Overcast,0,2011-01-01 15:45:00
10:52 AM,37.0,36.0,96,30.10,2.5,Calm,Calm,-,N/A,,Overcast,0,2011-01-01 15:52:00
11:04 AM,37.4,35.6,93,30.05,1.8,Calm,Calm,-,N/A,,Overcast,0,2011-01-01 16:04:00
11:36 AM,37.4,35.6,93,30.04,1.8,Calm,Calm,-,N/A,,Overcast,0,2011-01-01 16:36:00
11:40 AM,37.4,35.6,93,30.04,2.0,Calm,Calm,-,N/A,,Overcast,0,2011-01-01 16:40:00
11:52 AM,37.9,37.0,97,30.07,3.0,Calm,Calm,-,N/A,,Overcast,0,2011-01-01 16:52:00
11:59 AM,37.4,35.6,93,30.03,1.8,Calm,Calm,-,N/A,,Overcast,0,2011-01-01 16:59:00
12:13 PM,37.4,37.4,100,30.02,2.5,Calm,Calm,-,N/A,,Overcast,0,2011-01-01 17:13:00
12:52 PM,39.9,39.0,97,30.05,4.0,Calm,Calm,-,N/A,,Clear,0,2011-01-01 17:52:00
1:25 PM,39.2,39.2,100,30.01,2.0,Calm,Calm,-,N/A,,Scattered Clouds,0,2011-01-01 18:25:00
1:31 PM,42.8,39.2,87,30.01,3.0,Calm,Calm,-,N/A,,Mostly Cloudy,0,2011-01-01 18:31:00
1:47 PM,42.8,39.2,87,30.01,5.0,Calm,Calm,-,N/A,,Scattered Clouds,0,2011-01-01 18:47:00
1:52 PM,44.1,39.9,85,30.04,6.0,Calm,Calm,-,N/A,,Scattered Clouds,0,2011-01-01 18:52:00
2:52 PM,39.9,37.9,93,30.04,2.5,Calm,Calm,-,N/A,,Clear,0,2011-01-01 19:52:00
3:10 PM,39.2,39.2,100,30.00,1.8,Calm,Calm,-,N/A,,Clear,0,2011-01-01 20:10:00
3:15 PM,41.0,39.2,93,30.00,3.0,Calm,Calm,-,N/A,,Clear,0,2011-01-01 20:15:00
3:30 PM,39.2,37.4,93,30.00,2.0,Calm,Calm,-,N/A,,Mostly Cloudy,0,2011-01-01 20:30:00
3:52 PM,37.9,37.0,97,30.04,1.8,Calm,Calm,-,N/A,,Overcast,0,2011-01-01 20:52:00
4:02 PM,37.4,37.4,100,30.00,2.5,Calm,Calm,-,N/A,,Overcast,0,2011-01-01 21:02:00
4:21 PM,37.4,35.6,93,30.00,1.5,Calm,Calm,-,N/A,,Overcast,0,2011-01-01 21:21:00
4:27 PM,37.4,35.6,93,30.00,3.0,Calm,Calm,-,N/A,,Overcast,0,2011-01-01 21:27:00
4:52 PM,35.1,34.0,96,30.04,4.0,Calm,Calm,-,N/A,,Overcast,0,2011-01-01 21:52:00
5:21 PM,35.6,35.6,100,30.00,1.8,Calm,Calm,-,N/A,,Overcast,0,2011-01-01 22:21:00
5:25 PM,35.6,33.8,93,30.00,0.8,Calm,Calm,-,N/A,,Overcast,0,2011-01-01 22:25:00
5:38 PM,35.6,33.8,93,30.00,0.2,Calm,Calm,-,N/A,Fog,Fog,0,2011-01-01 22:38:00
5:50 PM,33.8,33.8,100,29.99,0.8,Calm,Calm,-,N/A,,Overcast,0,2011-01-01 22:50:00
5:52 PM,34.0,34.0,100,30.03,0.8,Calm,Calm,-,N/A,,Overcast,0,2011-01-01 22:52:00
6:03 PM,33.8,33.8,100,29.99,0.2,Calm,Calm,-,N/A,Fog,Fog,0,2011-01-01 23:03:00
6:52 PM,35.1,34.0,96,30.00,0.5,East,5.8,-,N/A,Fog,Fog,80,2011-01-01 23:52:00
7:39 PM,35.6,35.6,100,29.97,0.2,Calm,Calm,-,N/A,Fog,Fog,0,2011-01-02 00:39:00
7:52 PM,35.1,34.0,96,30.00,0.2,Calm,Calm,-,N/A,Fog,Fog,0,2011-01-02 00:52:00
8:04 PM,35.6,35.6,100,29.91,0.5,ENE,4.6,-,N/A,Fog,Fog,60,2011-01-02 01:04:00
8:52 PM,36.0,35.1,97,29.96,0.5,South,4.6,-,N/A,Fog,Fog,170,2011-01-02 01:52:00
9:00 PM,35.6,35.6,100,29.92,0.2,Calm,Calm,-,N/A,Fog,Fog,0,2011-01-02 02:00:00
9:08 PM,37.4,35.6,93,29.92,0.8,Calm,Calm,-,N/A,,Overcast,0,2011-01-02 02:08:00
9:32 PM,37.4,35.6,93,29.93,1.8,Calm,Calm,-,N/A,,Overcast,0,2011-01-02 02:32:00
9:41 PM,37.4,37.4,100,29.94,2.5,Calm,Calm,-,N/A,,Overcast,0,2011-01-02 02:41:00
9:45 PM,35.6,35.6,100,29.94,1.2,Calm,Calm,-,N/A,,Overcast,0,2011-01-02 02:45:00
9:52 PM,37.9,36.0,93,29.96,1.0,Calm,Calm,-,N/A,,Overcast,0,2011-01-02 02:52:00
10:03 PM,39.2,37.4,93,29.90,6.0,Variable,3.5,-,N/A,,Overcast,0,2011-01-02 03:03:00
10:52 PM,37.0,37.0,100,29.96,4.0,Calm,Calm,-,N/A,,Overcast,0,2011-01-02 03:52:00
11:52 PM,37.9,36.0,93,29.93,5.0,NNW,6.9,-,0.00,,Overcast,330,2011-01-02 04:52:00